| time (UTC) | temp C | wind direction | speed KPH | gust KPH | rain 1hr cm | rain 24hr cm | rain mn cm | humidity % | barometer mb |
| 20260502194529 | 18 | 117 | 4.8 | 16.1 | 0.00 | 0.00 | 0.00 | 36 | 1014.2 |
| 20260502193028 | 18 | 224 | 4.8 | 14.5 | 0.00 | 0.00 | 0.00 | 36 | 1014.4 |
| 20260502191530 | 17 | 274 | 1.6 | 30.6 | 0.00 | 0.00 | 0.00 | 40 | 1014.9 |
| 20260502190032 | 17 | 259 | 6.4 | 16.1 | 0.00 | 0.00 | 0.00 | 41 | 1015.1 |
| 20260502184527 | 17 | 252 | 4.8 | 12.9 | 0.00 | 0.00 | 0.00 | 39 | 1015.6 |
| 20260502183029 | 16 | 0 | 3.2 | 14.5 | 0.00 | 0.00 | 0.00 | 37 | 1015.8 |
| 20260502181534 | 16 | 245 | 3.2 | 16.1 | 0.00 | 0.00 | 0.00 | 40 | 1016.1 |
| 20260502163028 | 13 | 169 | 3.2 | 12.9 | 0.00 | 0.00 | 0.00 | 42 | 1017.9 |
| 20260502161527 | 12 | 218 | 3.2 | 11.3 | 0.00 | 0.00 | 0.00 | 43 | 1018.1 |
| 20260502151526 | 11 | 23 | 1.6 | 9.7 | 0.00 | 0.00 | 0.00 | 53 | 1018.6 |
| 20260502123028 | 2 | 168 | 0.0 | 4.8 | 0.00 | 0.00 | 0.00 | 77 | 1019.2 |
| 20260502121538 | 1 | 167 | 0.0 | 4.8 | 0.00 | 0.00 | 0.00 | 78 | 1019.2 |
| 20260502114528 | 0 | 0 | 0.0 | 1.6 | 0.00 | 0.00 | 0.00 | 79 | 1019.2 |
| 20260502113026 | 0 | 0 | 0.0 | 1.6 | 0.00 | 0.00 | 0.00 | 79 | 1019.2 |
| 20260502111532 | 0 | 0 | 0.0 | 1.6 | 0.00 | 0.00 | 0.00 | 79 | 1019.1 |
| 20260502110033 | 0 | 0 | 0.0 | 1.6 | 0.00 | 0.00 | 0.00 | 79 | 1019.2 |
| 20260502104528 | 0 | 0 | 0.0 | 1.6 | 0.00 | 0.00 | 0.00 | 78 | 1019.2 |
| 20260502103026 | 0 | 0 | 0.0 | 1.6 | 0.00 | 0.00 | 0.00 | 78 | 1019.3 |
| 20260502101526 | 0 | 0 | 0.0 | 1.6 | 0.00 | 0.00 | 0.00 | 78 | 1019.1 |
| 20260502091527 | 0 | 0 | 0.0 | 1.6 | 0.00 | 0.00 | 0.00 | 75 | 1019.0 |
| 20260502071528 | 1 | 0 | 0.0 | 0.0 | 0.00 | 0.00 | 0.00 | 72 | 1019.3 |
| 20260502070027 | 1 | 0 | 0.0 | 1.6 | 0.00 | 0.00 | 0.00 | 72 | 1019.4 |
| 20260502064531 | 2 | 0 | 0.0 | 1.6 | 0.00 | 0.00 | 0.00 | 71 | 1019.6 |
| 20260502063031 | 2 | 0 | 0.0 | 1.6 | 0.00 | 0.00 | 0.00 | 70 | 1019.7 |
| 20260502061526 | 2 | 0 | 0.0 | 0.0 | 0.00 | 0.00 | 0.00 | 70 | 1019.6 |
| 20260502060027 | 2 | 0 | 0.0 | 0.0 | 0.00 | 0.00 | 0.00 | 70 | 1019.6 |
| 20260502054533 | 2 | 0 | 0.0 | 0.0 | 0.00 | 0.00 | 0.00 | 70 | 1019.6 |
| 20260502053035 | 2 | 0 | 0.0 | 0.0 | 0.00 | 0.00 | 0.00 | 70 | 1019.6 |
| 20260502051530 | 2 | 0 | 0.0 | 0.0 | 0.00 | 0.00 | 0.00 | 69 | 1019.6 |
| 20260502050030 | 2 | 0 | 0.0 | 1.6 | 0.00 | 0.00 | 0.00 | 68 | 1019.5 |
| 20260502044528 | 2 | 0 | 0.0 | 0.0 | 0.00 | 0.00 | 0.00 | 68 | 1019.5 |
| 20260502043027 | 2 | 0 | 0.0 | 0.0 | 0.00 | 0.00 | 0.00 | 67 | 1019.5 |
| 20260502041529 | 3 | 0 | 0.0 | 0.0 | 0.00 | 0.00 | 0.00 | 67 | 1019.6 |
| 20260502040028 | 3 | 0 | 0.0 | 0.0 | 0.00 | 0.00 | 0.00 | 64 | 1019.5 |
| 20260502034528 | 3 | 0 | 0.0 | 0.0 | 0.00 | 0.00 | 0.00 | 61 | 1019.7 |
| 20260502033032 | 3 | 0 | 0.0 | 0.0 | 0.00 | 0.00 | 0.00 | 65 | 1019.7 |
| 20260502031526 | 3 | 0 | 0.0 | 1.6 | 0.00 | 0.00 | 0.00 | 62 | 1019.6 |
| 20260502030028 | 4 | 0 | 0.0 | 0.0 | 0.00 | 0.00 | 0.00 | 63 | 1019.7 |
| 20260502024527 | 4 | 0 | 0.0 | 0.0 | 0.00 | 0.00 | 0.00 | 60 | 1019.7 |
| 20260502023026 | 5 | 0 | 0.0 | 0.0 | 0.00 | 0.00 | 0.00 | 58 | 1019.7 |
| 20260502021528 | 5 | 0 | 0.0 | 0.0 | 0.00 | 0.00 | 0.00 | 60 | 1019.6 |
| 20260502020027 | 5 | 0 | 0.0 | 0.0 | 0.00 | 0.00 | 0.00 | 51 | 1019.5 |
| 20260502014529 | 6 | 0 | 0.0 | 0.0 | 0.00 | 0.00 | 0.00 | 49 | 1019.2 |
| 20260502013027 | 6 | 0 | 0.0 | 0.0 | 0.00 | 0.00 | 0.00 | 50 | 1019.2 |
| 20260502011526 | 7 | 0 | 0.0 | 0.0 | 0.00 | 0.00 | 0.00 | 47 | 1019.0 |
| 20260502010026 | 8 | 0 | 0.0 | 0.0 | 0.00 | 0.00 | 0.00 | 50 | 1019.1 |
| 20260502004544 | 8 | 0 | 0.0 | 3.2 | 0.00 | 0.00 | 0.00 | 44 | 1019.0 |
| 20260502003028 | 9 | 271 | 0.0 | 3.2 | 0.00 | 0.00 | 0.00 | 48 | 1019.1 |
| 20260502001527 | 9 | 193 | 1.6 | 3.2 | 0.00 | 0.00 | 0.00 | 42 | 1019.0 |
| 20260502000046 | 10 | 246 | 1.6 | 4.8 | 0.00 | 0.00 | 0.00 | 41 | 1018.9 |
| 20260501234532 | 10 | 357 | 1.6 | 8.0 | 0.00 | 0.00 | 0.00 | 41 | 1019.0 |
| 20260501233028 | 10 | 268 | 1.6 | 8.0 | 0.00 | 0.00 | 0.00 | 44 | 1019.0 |
| 20260501231536 | 11 | 256 | 1.6 | 9.7 | 0.00 | 0.00 | 0.00 | 42 | 1018.9 |
| 20260501230027 | 11 | 7 | 3.2 | 8.0 | 0.00 | 0.00 | 0.00 | 41 | 1018.8 |
| 20260501224527 | 10 | 23 | 1.6 | 6.4 | 0.00 | 0.00 | 0.00 | 45 | 1018.9 |
| 20260501223026 | 10 | 0 | 0.0 | 4.8 | 0.00 | 0.00 | 0.00 | 47 | 1018.9 |
| 20260501221528 | 10 | 53 | 1.6 | 8.0 | 0.00 | 0.00 | 0.00 | 44 | 1019.0 |
| 20260501220028 | 10 | 319 | 1.6 | 9.7 | 0.00 | 0.00 | 0.00 | 41 | 1019.0 |
| 20260501214525 | 10 | 344 | 3.2 | 8.0 | 0.00 | 0.00 | 0.00 | 48 | 1018.8 |
| 20260501213029 | 9 | 251 | 3.2 | 6.4 | 0.00 | 0.00 | 0.00 | 43 | 1018.8 |
| 20260501211529 | 9 | 20 | 1.6 | 8.0 | 0.00 | 0.00 | 0.00 | 42 | 1019.1 |
| 20260501210028 | 10 | 305 | 3.2 | 8.0 | 0.00 | 0.00 | 0.00 | 42 | 1019.0 |
| 20260501204530 | 10 | 6 | 3.2 | 6.4 | 0.00 | 0.00 | 0.00 | 46 | 1019.2 |
| 20260501203028 | 10 | 52 | 3.2 | 12.9 | 0.00 | 0.00 | 0.00 | 47 | 1019.2 |
| 20260501201530 | 9 | 296 | 1.6 | 9.7 | 0.00 | 0.00 | 0.00 | 47 | 1019.2 |
| 20260501200029 | 10 | 57 | 3.2 | 8.0 | 0.00 | 0.00 | 0.00 | 47 | 1019.4 |